| time (UTC) | temp F | wind direction | speed knots | gust knots | rain 1hr in | rain 24hr in | rain mn in | humidity % | barometer mb |
| 20260506211547 | 77 | 329 | 0.0 | 0.0 | 0.00 | 0.00 | 0.00 | 80 | 1013.9 |
| 20260506210042 | 78 | 265 | 0.0 | 0.0 | 0.00 | 0.00 | 0.00 | 79 | 1013.9 |
| 20260506204538 | 78 | 240 | 0.0 | 0.0 | 0.00 | 0.00 | 0.00 | 80 | 1013.9 |
| 20260506203057 | 78 | 293 | 0.0 | 0.0 | 0.00 | 0.00 | 0.00 | 79 | 1014.0 |
| 20260506201529 | 78 | 350 | 0.0 | 0.0 | 0.00 | 0.00 | 0.00 | 79 | 1014.2 |
| 20260506200026 | 77 | 345 | 0.0 | 0.0 | 0.00 | 0.00 | 0.00 | 79 | 1014.2 |
| 20260506194520 | 78 | 35 | 0.0 | 0.0 | 0.00 | 0.00 | 0.00 | 78 | 1014.2 |
| 20260506193016 | 78 | 316 | 0.0 | 0.0 | 0.00 | 0.00 | 0.00 | 79 | 1014.4 |
| 20260506191515 | 77 | 302 | 0.0 | 0.0 | 0.00 | 0.00 | 0.00 | 79 | 1014.7 |
| 20260506190008 | -90 | 190 | 1.7 | 0.0 | 0.00 | 0.00 | 0.00 | 1014.9 | |
| 20260506184502 | -90 | 188 | 2.6 | 0.0 | 0.00 | 0.00 | 0.00 | 1015.2 | |
| 20260506183110 | -90 | 200 | 3.5 | 0.0 | 0.00 | 0.00 | 0.00 | 1015.3 | |
| 20260506181600 | -90 | 185 | 2.6 | 0.0 | 0.00 | 0.00 | 0.00 | 1015.3 | |
| 20260506180053 | -90 | 214 | 3.5 | 0.0 | 0.00 | 0.00 | 0.00 | 1015.6 | |
| 20260506174555 | -90 | 206 | 3.5 | 0.0 | 0.00 | 0.00 | 0.00 | 1015.7 | |
| 20260506173051 | -90 | 184 | 1.7 | 0.0 | 0.00 | 0.00 | 0.00 | 1016.2 | |
| 20260506171538 | -90 | 202 | 0.9 | 0.0 | 0.00 | 0.00 | 0.00 | 1016.5 | |
| 20260506170033 | -90 | 159 | 0.9 | 0.0 | 0.00 | 0.00 | 0.00 | 1016.5 | |
| 20260506164528 | -90 | 171 | 0.9 | 0.0 | 0.00 | 0.00 | 0.00 | 1016.6 | |
| 20260506163039 | -90 | 223 | 0.9 | 0.0 | 0.00 | 0.00 | 0.00 | 1016.7 | |
| 20260506161518 | -90 | 161 | 1.7 | 0.0 | 0.00 | 0.00 | 0.00 | 1016.9 | |
| 20260506160014 | -90 | 155 | 1.7 | 0.0 | 0.00 | 0.00 | 0.00 | 1016.9 | |
| 20260506154526 | -90 | 189 | 1.7 | 0.0 | 0.00 | 0.00 | 0.00 | 1016.9 | |
| 20260506153005 | -88 | 164 | 0.0 | 0.0 | 0.00 | 0.00 | 0.00 | 1017.0 | |
| 20260506151502 | -88 | 209 | 0.9 | 0.0 | 0.00 | 0.00 | 0.00 | 1017.1 | |
| 20260506150057 | -86 | 150 | 0.0 | 0.0 | 0.00 | 0.00 | 0.00 | 1017.0 | |
| 20260506144552 | -86 | 207 | 1.7 | 0.0 | 0.00 | 0.00 | 0.00 | 1016.7 | |
| 20260506143047 | -86 | 191 | 0.9 | 0.0 | 0.00 | 0.00 | 0.00 | 1016.8 | |
| 20260506141543 | -82 | 198 | 2.6 | 0.0 | 0.00 | 0.00 | 0.00 | 1016.5 | |
| 20260506140039 | -77 | 194 | 1.7 | 0.0 | 0.00 | 0.00 | 0.00 | 1016.5 | |
| 20260506134535 | -75 | 207 | 1.7 | 0.0 | 0.00 | 0.00 | 0.00 | 1016.4 | |
| 20260506133033 | -68 | 200 | 0.9 | 0.0 | 0.00 | 0.00 | 0.00 | 1016.1 | |
| 20260506131531 | -61 | 201 | 1.7 | 0.0 | 0.00 | 0.00 | 0.00 | 1016.1 | |
| 20260506130021 | -50 | 238 | 0.0 | 0.0 | 0.00 | 0.00 | 0.00 | 1016.3 | |
| 20260506124517 | -48 | 196 | 0.0 | 0.0 | 0.00 | 0.00 | 0.00 | 1016.2 | |
| 20260506123013 | -46 | 182 | 0.9 | 0.0 | 0.00 | 0.00 | 0.00 | 1016.0 | |
| 20260506121508 | -45 | 200 | 0.9 | 0.0 | 0.00 | 0.00 | 0.00 | 1015.9 | |
| 20260506120010 | -44 | 198 | 0.0 | 0.0 | 0.00 | 0.00 | 0.00 | 1015.7 | |
| 20260506114600 | -43 | 174 | 0.0 | 0.0 | 0.00 | 0.00 | 0.00 | 1015.6 | |
| 20260506113055 | -43 | 193 | 0.0 | 0.0 | 0.00 | 0.00 | 0.00 | 1015.4 | |
| 20260506111551 | -43 | 197 | 0.0 | 0.0 | 0.00 | 0.00 | 0.00 | 1015.4 | |
| 20260506110047 | -44 | 181 | 0.0 | 0.0 | 0.00 | 0.00 | 0.00 | 1015.4 | |
| 20260506104544 | -45 | 199 | 0.0 | 0.0 | 0.00 | 0.00 | 0.00 | 1015.4 | |
| 20260506103038 | -46 | 202 | 0.0 | 0.0 | 0.00 | 0.00 | 0.00 | 1015.2 | |
| 20260506101534 | -47 | 197 | 0.0 | 0.0 | 0.00 | 0.00 | 0.00 | 1015.0 | |
| 20260506100031 | -47 | 204 | 0.0 | 0.0 | 0.00 | 0.00 | 0.00 | 1015.2 | |
| 20260506094525 | -48 | 197 | 0.0 | 0.0 | 0.00 | 0.00 | 0.00 | 1014.9 | |
| 20260506093020 | -50 | 197 | 0.0 | 0.0 | 0.00 | 0.00 | 0.00 | 1015.0 | |
| 20260506091517 | -52 | 157 | 0.0 | 0.0 | 0.00 | 0.00 | 0.00 | 1015.2 | |
| 20260506090012 | -59 | 192 | 0.0 | 0.0 | 0.00 | 0.00 | 0.00 | 1015.0 | |
| 20260506084509 | -63 | 180 | 0.0 | 0.0 | 0.00 | 0.00 | 0.00 | 1014.8 | |
| 20260506083005 | -66 | 196 | 0.0 | 0.0 | 0.00 | 0.00 | 0.00 | 1015.0 | |
| 20260506081613 | -70 | 196 | 0.0 | 0.0 | 0.00 | 0.00 | 0.00 | 1014.9 | |
| 20260506073047 | -84 | 179 | 0.0 | 0.0 | 0.00 | 0.00 | 0.00 | 1014.9 | |
| 20260506071542 | -86 | 202 | 0.0 | 0.0 | 0.00 | 0.00 | 0.00 | 1014.9 | |
| 20260506061527 | -90 | 147 | 0.0 | 0.0 | 0.00 | 0.00 | 0.00 | 1015.5 | |
| 20260506044557 | -90 | 161 | 0.0 | 0.0 | 0.00 | 0.00 | 0.00 | 1015.9 | |
| 20260506043055 | -90 | 194 | 0.0 | 0.0 | 0.00 | 0.00 | 0.00 | 1015.9 | |
| 20260506041559 | -90 | 134 | 0.0 | 0.0 | 0.00 | 0.00 | 0.00 | 1016.2 | |
| 20260506040045 | -90 | 178 | 0.0 | 0.0 | 0.00 | 0.00 | 0.00 | 1016.2 | |
| 20260506034550 | -90 | 117 | 0.0 | 0.0 | 0.00 | 0.00 | 0.00 | 1016.2 | |
| 20260506033038 | -90 | 131 | 0.9 | 0.0 | 0.00 | 0.00 | 0.00 | 1016.4 | |
| 20260506031532 | -90 | 197 | 0.9 | 0.0 | 0.00 | 0.00 | 0.00 | 1016.2 | |
| 20260506030027 | -90 | 163 | 0.9 | 0.0 | 0.00 | 0.00 | 0.00 | 1016.2 | |
| 20260506024528 | -90 | 172 | 0.9 | 0.0 | 0.00 | 0.00 | 0.00 | 1016.0 | |
| 20260506023018 | -90 | 158 | 1.7 | 0.0 | 0.00 | 0.00 | 0.00 | 1016.1 | |
| 20260506021514 | -90 | 119 | 0.9 | 0.0 | 0.00 | 0.00 | 0.00 | 1015.8 | |
| 20260506020009 | -90 | 194 | 0.9 | 0.0 | 0.00 | 0.00 | 0.00 | 1015.8 | |
| 20260506014504 | -90 | 128 | 0.9 | 0.0 | 0.00 | 0.00 | 0.00 | 1015.8 | |
| 20260506013001 | -90 | 135 | 0.9 | 0.0 | 0.00 | 0.00 | 0.00 | 1016.0 | |
| 20260506011605 | -90 | 129 | 1.7 | 0.0 | 0.00 | 0.00 | 0.00 | 1015.9 | |
| 20260506010053 | -90 | 149 | 0.9 | 0.0 | 0.00 | 0.00 | 0.00 | 1015.7 | |
| 20260506004547 | -90 | 120 | 1.7 | 0.0 | 0.00 | 0.00 | 0.00 | 1015.6 | |
| 20260506003044 | -90 | 136 | 1.7 | 0.0 | 0.00 | 0.00 | 0.00 | 1015.3 | |
| 20260506001539 | -90 | 113 | 2.6 | 0.0 | 0.00 | 0.00 | 0.00 | 1015.3 | |
| 20260506000036 | -90 | 106 | 1.7 | 0.0 | 0.00 | 0.00 | 0.00 | 1015.5 | |
| 20260505234530 | -90 | 124 | 1.7 | 0.0 | 0.00 | 0.00 | 0.00 | 1015.4 | |
| 20260505233028 | -90 | 109 | 1.7 | 0.0 | 0.00 | 0.00 | 0.00 | 1015.6 | |
| 20260505231523 | -90 | 155 | 1.7 | 0.0 | 0.00 | 0.00 | 0.00 | 1015.6 | |
| 20260505230016 | -90 | 117 | 1.7 | 0.0 | 0.00 | 0.00 | 0.00 | 1015.4 | |
| 20260505224513 | -90 | 128 | 1.7 | 0.0 | 0.00 | 0.00 | 0.00 | 1015.6 | |
| 20260505223007 | -90 | 136 | 1.7 | 0.0 | 0.00 | 0.00 | 0.00 | 1015.5 | |
| 20260505221504 | -90 | 127 | 1.7 | 0.0 | 0.00 | 0.00 | 0.00 | 1015.6 | |
| 20260505220104 | -90 | 108 | 1.7 | 0.0 | 0.00 | 0.00 | 0.00 | 1015.6 | |
| 20260505214557 | -90 | 131 | 1.7 | 0.0 | 0.00 | 0.00 | 0.00 | 1015.6 | |
| 20260505213052 | -90 | 155 | 2.6 | 0.0 | 0.00 | 0.00 | 0.00 | 1015.7 |